User: anonymous   Login
Location: Newark
(5.8900°S, 42.6378°W)
Time: 04:36:46
(UTC+00:00)
Language:

BEESAT - Orbit

View from above orbital plane
View from above orbital plane
View from above satellite
View from above satellite

Ground track
Ground track

The orbit data is extracted from the following two-line orbital elements,

1 35933U 09051C   19292.92208714 +.00000104 +00000-0 +34388-4 0  9999
2 35933 098.6008 104.4041 0006267 151.6659 208.4880 14.56404213534747
Epoch (UTC): 19 October 2019 22:07:48
Eccentricity: 0.0006267
inclination: 98.6008°
perigee height: 700 km
apogee height: 709 km
right ascension of ascending node: 104.4041°
argument of perigee: 151.6659°
revolutions per day: 14.56404213
mean anomaly at epoch: 208.4880°
orbit number at epoch: 53474

The dashed part of the orbit path shows where the satellite is in the earth's shadow,  

DLR